Miscellaneous Local Product
Issued by NWS North Platte, NE

Current Version | Previous Version | Text Only | Print | Product List | Glossary On
Versions: 1 2 3 4 5 6 7 8 9 10 11 12 13 14 15 16 17 18 19 20 21 22 23 24 25 26 27 28 29 30 31 32 33 34 35 36 37 38 39 40 41 42 43 44 45 46 47 48 49 50
913
AXUS43 KLBF 291810
MISLBF


WESTERN AND NORTH CENTRAL NEBRASKA HOURLY WEATHER ROUNDUP
NATIONAL WEATHER SERVICE NORTH PLATTE NE
100 PM CDT FRI JUL 29 2016

NOTE: "FAIR" INDICATES FEW OR NO CLOUDS BELOW 12,000 FEET WITH NO
SIGNIFICANT WEATHER AND/OR OBSTRUCTIONS TO VISIBILITY.

NOTE: STATIONS NOT REPORTING VARIABLES SUCH AS SKY/WEATHER OR
PRESSURE ARE PROVIDED BY RAWS AND APRS NETWORKS AND ARE NOT UNDER
NATIONAL WEATHER SERVICE QUALITY CONTROL.

...OBSERVATIONS IN AND NEAR THE EASTERN PANHANDLE OF NEBRASKA...

CITY           SKY/WX    TMP DP  RH WIND       PRES   REMARKS
PINE RIDGE     PTSUNNY   81  59  47 VRB5      30.10F
CHADRON        SUNNY     81  57  43 CALM      30.09F
ALLIANCE       MOSUNNY   78  56  46 VRB7      30.13F
SIDNEY         PTSUNNY   78  58  49 VRB7      30.18F
CRESCENT LAKE    N/A     80  60  49 S3          N/A
$$

...OBSERVATIONS IN NORTHERN NEBRASKA AND FAR SOUTHERN SOUTH DAKOTA...

CITY           SKY/WX    TMP DP  RH WIND       PRES   REMARKS
WINNER         FAIR      77  61  57 E8        30.10F
VALENTINE      CLOUDY    74  58  57 S8        30.13F
THEDFORD       PTSUNNY   75  61  62 E7        30.14F
AINSWORTH      MOSUNNY   71  63  76 CALM      30.14S
O`NEILL        MOSUNNY   74  57  55 E7        30.13S
ORD            CLOUDY    70  61  73 SE3       30.11S
BROKEN BOW     CLOUDY    71  65  81 E8        30.13F
VALENTINE NWR    N/A     73  59  62 W5          N/A
BUTTE            N/A     73  59  60 E8          N/A
HALSEY           N/A     73  61  65 SE5         N/A
EWING            N/A     74  63  67 E3          N/A
$$

...OBSERVATIONS IN SOUTHWEST NEBRASKA AND FAR NORTHEAST COLORADO...

CITY           SKY/WX    TMP DP  RH WIND       PRES   REMARKS
WRAY           FAIR      81  54  39 E7        30.15F
IMPERIAL       CLOUDY    75  61  61 SW8       30.15S
OGALLALA       MOSUNNY   78  60  54 CALM      30.14F
NORTH PLATTE   SUNNY     77  63  61 W6        30.12F
MCCOOK         PTSUNNY   79  61  53 CALM      30.12F
LEXINGTON      PTSUNNY   77  64  63 SW3       30.11F
STAPLETON        N/A     73  64  73 CALM        N/A
GOTHENBURG       N/A     77  60  56 CALM        N/A
CALLAWAY         N/A     72  66  80 E3          N/A
$$

...OBSERVATIONS IN CENTRAL LINCOLN COUNTY AREA...

CITY           SKY/WX    TMP DP  RH WIND       PRES   REMARKS
N.P. AIRPORT   SUNNY     77  63  61 W6        30.12F
N.P. DOWNTOWN    N/A     77  65  66 CALM        N/A
N.P. SOUTHEAST   N/A     77  63  61 CALM        N/A
N.P. HILLCREST   N/A     75  65  72 NW3         N/A
$$

...SOME OBSERVATIONS FROM AROUND THE REGION...

CITY           SKY/WX    TMP DP  RH WIND       PRES   REMARKS
DENVER         PTSUNNY   80  57  45 NE9       30.19S
LARAMIE        SUNNY     75  41  29 VRB5      30.28F
CHEYENNE       SUNNY     76  56  49 S8        30.23F
SCOTTSBLUFF    SUNNY     82  59  45 E12       30.13F
RAPID CITY     MOSUNNY   77  56  48 MISG      30.10F
BISMARCK       PTSUNNY   76  59  55 CALM      30.07F
PIERRE         MOSUNNY   77  60  55 S12       30.07F
SIOUX FALLS    MOSUNNY   77  58  51 NE6       30.09F
OMAHA          MOSUNNY   77  62  59 N8        30.04F
GRAND ISLAND   MOSUNNY   76  62  62 NE6       30.10S
KANSAS CITY    PTSUNNY   82  62  50 N5        30.02S
WICHITA        MOSUNNY   81  67  62 N10       30.03F
OKLAHOMA CITY  CLOUDY    78  69  73 S13       29.95F
DALLAS         CLOUDY    91  69  48 W8        30.02F HX  96
AMARILLO       MOSUNNY   74  62  66 SE25G35   30.16F
DODGE CITY     CLOUDY    77  65  66 SW5       30.11S
HAYS           MOSUNNY   81  61  50 SE6       30.08F
GOODLAND       LGT RAIN  68  62  81 SE5       30.16F
$$




USA.gov is the U.S. government's official web portal to all federal, state and local government web resources and services.